Location: Alston School (historical)
(35.5076°N, 89.8251°W)
Time: 23:09:57
(UTC+00:00)

Meteor 1-25 Rocket - Pass Details

Date: 09 December 2025
Orbit: 838 x 888 km, 81.2° (Epoch: 17 January)

Event Time Altitude Azimuth Distance (km) Brightness Sun altitude
Rises 23:40:44 0° 355° (N) 3,496 7.3 -10.9°
Reaches altitude 10° 23:43:14 10° 358° (N) 2,549 6.5 -11.4°
Maximum altitude 23:49:00 65° 80° (E) 962 4.2 -12.5°
Drops below altitude 10° 23:54:39 10° 162° (SSE) 2,505 6.7 -13.6°
Sets 23:57:05 0° 165° (SSE) 3,431 7.4 -14.1°
